Home   Weather   Seelze   Past weeks

Flag for Germany Past Weather in Seelze, Lower Saxony, Germany — Yesterday and Last 2 Weeks

Now
27 °F

Ice fog.


Feels Like: 18 °F
Forecast: 25 / 33 °F
Wind: 8 mph from East

Location: Hannover

Current Time: Jan 22, 2017 at 7:11:48 am

Latest Report: Jan 22, 2017 at 6:20 am


Visibility: 2 mi

Pressure: 30.36 "Hg

Humidity: 100%

Dew Point: 27 °F

Location of SeelzeLocation

Past Weather in Seelze — Graph

°F

Seelze Temperature Yesterday

Maximum temperature yesterday: 41 °F (at 2:20 pm)
Minimum temperature yesterday: 28 °F (at 9:20 pm)
Average temperature yesterday: 34 °F

High & Low Weather Summary for the Past Weeks

 TemperatureHumidityPressure
High43 °F (Jan 11, 3:20 pm)100% (Jan 7, 8:20 pm)30.74 "Hg (Jan 7, 8:20 pm)
Low21 °F (Jan 16, 8:50 am)48% (Jan 20, 12:20 pm)28.94 "Hg (Jan 13, 4:20 am)
Average32 °F87%30.16 "Hg
* Reported Jan 7 5:20 am — Jan 22 5:50 am, Seelze, Weather by CustomWeather, © 2017

Note: Actual official high and low records may vary slightly from our data, if they occured in-between our weather recording intervals... More about our weather records

Advertising

Seelze Weather History for the Previous 24 Hours

Scroll right to see more
 ConditionsComfort  
Time TempWeatherWind HumidityBarometerVisibility
5:50 am
Sun, Jan 22
27 °FIce fog.8 mph93%30.36 "Hg2 mi
5:20 am27 °FIce fog.7 mph93%30.36 "Hg2 mi
4:50 am27 °FIce fog.8 mph93%30.39 "Hg2 mi
4:20 am27 °FIce fog.6 mph93%30.39 "Hg2 mi
3:50 am25 °FIce fog.6 mph100%30.39 "Hg2 mi
3:20 am27 °FIce fog.5 mph100%30.39 "Hg2 mi
2:50 am27 °FIce fog.6 mph93%30.39 "Hg3 mi
2:20 am27 °FIce fog.5 mph93%30.39 "Hg3 mi
1:50 am28 °FClear.5 mph93%30.39 "Hg4 mi
1:20 am28 °FClear.7 mph93%30.42 "Hg5 mi
12:50 am28 °FClear.6 mph86%30.42 "Hg5 mi
12:20 am30 °FClear.6 mph93%30.42 "Hg5 mi
11:50 pm
Sat, Jan 21
30 °FClear.7 mph93%30.42 "Hg10 mi
11:20 pm30 °FClear.10 mph93%30.42 "Hg10 mi
10:50 pm30 °FClear.10 mph93%30.42 "Hg10 mi
10:20 pm30 °FClear.8 mph93%30.42 "Hg10 mi
9:50 pm30 °FClear.8 mph93%30.42 "Hg10 mi
9:20 pm28 °FClear.6 mph93%30.42 "Hg10 mi
8:50 pm30 °FClear.5 mph86%30.42 "Hg10 mi
8:20 pm32 °FClear.6 mph87%30.42 "Hg10 mi
7:50 pm32 °FClear.6 mph87%30.42 "Hg10 mi
7:20 pm32 °FClear.5 mph87%30.42 "Hg10 mi
6:50 pm30 °FClear.7 mph86%30.42 "Hg10 mi
6:20 pm32 °FClear.6 mph87%30.42 "Hg10 mi
5:50 pm34 °FClear.6 mph81%30.42 "Hg10 mi
5:20 pm36 °FPassing clouds.6 mph81%30.42 "HgN/A
4:50 pm36 °FPassing clouds.6 mph81%30.42 "HgN/A
4:20 pm37 °FPassing clouds.6 mph75%30.42 "HgN/A
3:50 pm39 °FPassing clouds.7 mph70%30.45 "HgN/A
3:20 pm39 °FScattered clouds.7 mph75%30.45 "HgN/A
2:50 pm39 °FPartly sunny.12 mph75%30.45 "HgN/A
2:20 pm41 °FPartly sunny.10 mph70%30.45 "HgN/A
1:50 pm39 °FPartly sunny.8 mph75%30.45 "HgN/A
1:20 pm37 °FPartly sunny.9 mph81%30.48 "HgN/A
12:50 pm39 °FPartly sunny.8 mph75%30.48 "HgN/A
12:20 pm37 °FPartly sunny.9 mph81%30.48 "HgN/A
11:50 am37 °FPartly sunny.9 mph81%30.48 "HgN/A
11:20 am37 °FPartly sunny.5 mph81%30.51 "HgN/A
10:50 am36 °FPartly sunny.3 mph81%30.51 "HgN/A
10:20 am36 °FPartly sunny.3 mph87%30.51 "HgN/A
9:50 am34 °FPartly sunny.5 mph87%30.51 "HgN/A
9:20 am34 °FPartly sunny.3 mph93%30.51 "HgN/A
8:50 am34 °FPartly sunny.3 mph87%30.51 "HgN/A
8:20 am34 °FPartly sunny.5 mph87%30.48 "HgN/A
7:50 am34 °FPassing clouds.6 mph93%30.48 "Hg6 mi
7:20 am34 °FPassing clouds.1 mph93%30.48 "Hg6 mi
Weather by CustomWeather, © 2017

See weather overviewHow to use our weather pages